sat.trackr.live / text

‹ back to catalog

TEVEL2-1

NORAD 63217 · 2025-052H

PAYLOAD ACTIVE UNKNOWN

§ Identity

Operator
Country
ISRA
Launch date
2025-03-15
Launch site
AFWTR
Launch vehicle
Mass (kg)
RCS (m²)

Purposes: comms

External: N2YO · Heavens-Above · Gunter

§ Orbital elements

Epoch: 2026-05-25T03:27:20.596896Z

Period
93.93 min
Inclination
97.3906°
Eccentricity
0.0002689
Mean motion
15.32981102 rev/d
Perigee alt
465.1 km
Apogee alt
468.8 km
Semi-major
6,845.1 km
B*
5.3892e-4
RAAN
41.0991°
Arg perigee
157.2132°
Mean anomaly
202.9230°
Rev number
6,656

§ Raw data

TEVEL2-11 63217U 25052H   26145.14398839  .00017111  00000+0  53892-3 0  99962 63217  97.3906  41.0991 0002689 157.2132 202.9230 15.32981102 66568

JSON: /api/v1/satellites/63217 · /tle

For live sub-satellite position, see the globe view (requires WebGL).

§ Visibility from observer

Set your observer location to see the next 7 days of passes ≥ 10°. The values pass through the URL so the page stays shareable.

No JS? Fill the form by hand. The geolocation button needs JavaScript.

§ Radio — SatNOGS DB

ModeDescriptionDownlinkUplink
BPSK Mode U - BPSK9k6 G3RUH - Beacon 436.400 MHz
FM Mode V/U - FM Transponder 436.400 MHz 145.970 MHz

2 transmitters · refreshed weekly from db.satnogs.org